Regional Weather Roundup
Issued by NWS Bismarck, ND

Home | Current Version | Previous Version | Text Only | Print | Product List | Glossary On
Versions: 1 2 3 4 5 6 7 8 9 10 11 12 13 14 15 16 17 18 19 20 21 22 23 24 25 26 27 28 29 30 31 32 33 34 35 36 37 38 39 40 41 42 43 44 45 46 47 48 49 50
000
ASUS43 KBIS 310010
RWRBIS

NWR BROADCAST TEXT
NATIONAL WEATHER SERVICE BISMARCK ND
700 PM CDT THU JUL 30 2015

NOTE: "FAIR" INDICATES FEW OR NO CLOUDS BELOW 12,000 FEET WITH NO
SIGNIFICANT WEATHER AND/OR OBSTRUCTIONS TO VISIBILITY.


CITY           SKY/WX    TMP DP  RH WIND       PRES   REMARKS
WILLISTON      SUNNY     84  43  23 N8        30.14F
MINOT          SUNNY     78  45  30 NW17      30.11S
MINOT AFB      SUNNY     81  46  28 NW17      30.09S
BISMARCK       SUNNY     83  46  27 N15       30.13S
DICKINSON      SUNNY     82  46  28 NW9       30.15F
GARRISON         N/A     78  50  37 NW13      30.13S
HETTINGER ARPT SUNNY     85  41  21 N15       30.18S
JAMESTOWN      SUNNY     80  52  37 NW15      30.07S
BEACH          FAIR      81  46  30 N6        30.18F
CROSBY         FAIR      75  48  38 NW8       30.15S
HARVEY         FAIR      77  48  36 NW21G26   30.09R
HAZEN          FAIR      82  45  26 N12       30.13F
LINTON         FAIR      82  50  32 NW10      30.13S
MANDAN         FAIR      81  45  28 NW12      30.14S
OAKES            N/A     82  54  36 W16       30.07S
STANLEY        FAIR      75  48  38 N14G22    30.16S
$$

CITY           SKY/WX    TMP DP  RH WIND       PRES   REMARKS
GRAND FORKS    MOSUNNY   80  54  40 W16G25    29.97S
GRAND FORKS AF MOSUNNY   78  53  41 NW16G29   29.98F
DEVILS LAKE    SUNNY     77  48  36 NW21G28   30.03R
FARGO          SUNNY     82  53  36 NW15      30.01S
CAVALIER       FAIR      77  48  36 W16G28    29.96S
GRAFTON        FAIR      79  52  38 NW20G29   29.97S
GWINNER        FAIR      82  55  39 W12       30.06F
LANGDON        FAIR      75  46  35 NW21G32   30.03R
ROLLA          FAIR      70  48  46 NW18G25   30.07S
WALHALLA       FAIR      75  50  41 MISG      29.97S
$$

CITY           SKY/WX    TMP DP  RH WIND       PRES   REMARKS
ABERDEEN       SUNNY     85  53  33 NW15      30.07F
MOBRIDGE       SUNNY     86  52  30 N13       30.09S
BUFFALO          N/A     87  39  18 NW13      30.12F
RAPID CITY     SUNNY     85  45  24 CALM      30.21F
GLASGOW        SUNNY     85  41  21 NW14      30.15S
SIDNEY         MOSUNNY  N/A N/A N/A NW5       30.13S
WOLF POINT     SUNNY     88  41  19 NW10      30.14S
GLENDIVE       SUNNY     84  39  20 NW15      30.16F
MILES CITY     SUNNY     90  41  18 NW15G21   30.15S
BAKER          SUNNY     86  41  20 NW16      30.19F
$$

CITY           SKY/WX    TMP DP  RH WIND       PRES   REMARKS
BILLINGS       MOSUNNY   88  34  14 E3        30.21S
GREAT FALLS    SUNNY     86  36  16 S7        30.19F
REGINA         MOSUNNY   77  52  41 NW12G18   30.12F
ESTEVAN        MOSUNNY   75  48  38 NW16G25   30.14S
$$




USA.gov is the U.S. government's official web portal to all federal, state and local government web resources and services.